Location: Castle Hill Houses
(40.8186°N, 73.8497°W)
Time: 19:31:28
(UTC+00:00)

NOSS 3-2 (A) - Pass Details

Date: 26 January 2020
Orbit: 809 x 1399 km, 63.4° (Epoch: 20 February)

Event Time Altitude Azimuth Distance (km) Brightness Sun altitude
Exits shadow 08:52:13 66° 59° (ENE) 1,399 4.3 -37.6°
Drops below altitude 10° 09:00:28 10° 134° (SE) 3,434 6.7 -36.1°
Sets 09:03:29 0° 137° (SE) 4,433 7.4 -35.5°
